Regional Weather Roundup
Issued by NWS

Home | Current Version | Previous Version | Text Only | Print | Product List | Glossary On
Versions: 1 2 3 4 5 6 7 8 9 10 11 12 13 14 15 16 17 18 19 20 21 22 23 24 25 26 27 28
000
ASCA42 TJSJ 272010
RWRPR
PUERTO RICO/U.S. VIRGIN ISLANDS HOURLY WEATHER ROUNDUP
NATIONAL WEATHER SERVICE SAN JUAN PR
400 PM AST SUN MAY 27 2018

PRZ001>002-007>008-010-272100-
PUERTO RICO

CITY           SKY/WX    TMP DP  RH WIND       PRES   REMARKS
SAN JUAN LMM   MOSUNNY   84  79  84 NE15      29.98F HX  96
AGUADILLA      MOSUNNY   84  73  70 E16       29.99F HX  91
CEIBA          PTSUNNY   84  79  84 E10       30.01  HX  96
$$

VIZ001>002-272100-
U.S. VIRGIN ISLANDS

CITY           SKY/WX    TMP DP  RH WIND       PRES   REMARKS
CHARLOTTE AMA  LGT RAIN N/A N/A N/A E7        29.99
$$

HOURLY WEATHER ROUNDUP FOR THE NEWS MEDIA

CITY           SKY/WX    TMP DP  RH WIND       PRES   REMARKS
ORLANDO        PTSUNNY   82  73  74 SE17      29.75F
NEW YORK       CLOUDY    61  58  90 NE21      30.04R
NEWARK         CLOUDY    62  57  83 NE20G26   30.03S
CHICAGO        FAIR      95  59  30 N3        29.85F HX  94
HARTFORD       LGT RAIN  52  52 100 NE13      30.12F FOG
BOSTON         CLOUDY    53  45  74 NE20      30.19F
DALLAS         MOSUNNY   95  71  45 SE10      29.81F HX 102
PHILADELPHIA   CLOUDY    64  61  90 NE12      29.99
LOS ANGELES    MOSUNNY   69  53  56 W12       29.94F
WASHINGTON DC  LGT RAIN  78  74  87 SW12G23   29.91S



USA.gov is the U.S. government's official web portal to all federal, state and local government web resources and services.